Location: Wingville
(42.9917°N, 90.4915°W)
Time: 21:47:09
(UTC+00:00)

CUBESAT XI-V - Pass Details

Date: 06 July 2022
Orbit: 667 x 690 km, 98.1° (Epoch: 07 August)

Event Time Altitude Azimuth Distance (km) Brightness Sun altitude
Exits shadow 07:36:06 38° 148° (SSE) 1,033 ? -21.2°
Maximum altitude 07:37:49 71° 75° (ENE) 711 ? -21.1°
Drops below altitude 10° 07:42:24 10° 351° (N) 2,105 ? -20.7°
Sets 07:44:38 0° 350° (N) 3,021 ? -20.6°
